Location: Unspecified
(48.7670°N, 0.0000°E)
Time: 18:06:40
(UTC+00:00)

A-11 Canister half - Pass Details

Date: 28 June 2019
Orbit: 1526 x 1683 km, 47.3° (Epoch: 20 July)

Event Time Altitude Azimuth Distance (km) Brightness Sun altitude
Exits shadow 02:41:57 11° 214° (SW) 3,681 10.3 -9.7°
Maximum altitude 02:50:31 46° 146° (SE) 1,989 9.5 -8.8°
Drops below altitude 10° 02:59:15 10° 77° (ENE) 3,708 11.9 -7.9°
Sets 03:02:24 0° 72° (ENE) 4,685 12.7 -7.6°
